Weather History for KDOV - November, 2013

Change the Weather History Date:

Wednesday, November 13, 2013

  Actual Average (WUND) Record (WUND)
Temperature  
Mean Temperature 34 °F -  
Max Temperature 41 °F - - (-1)
Min Temperature 26 °F - - (-1)
Degree Days  
Heating Degree Days 32    
Moisture  
Dew Point 17 °F    
Average Humidity 52    
Maximum Humidity 73    
Minimum Humidity 34    
Precipitation  
Precipitation 0.00 in - - ()
Sea Level Pressure  
Sea Level Pressure 30.39 in    
Wind  
Wind Speed 10 mph (WNW)    
Max Wind Speed 21 mph    
Max Gust Speed 28 mph    
Visibility 10 miles    
Events      
Averages and records for this station are not official NWS values.
T = Trace of Precipitation, MM = Missing Value Source: NWS Daily Summary

Daily Weather History Graph

Daily Weather History Graph

Search for Another Location

Airport or City:

Trip Planner

Search our weather history database for the weather conditions in past years. The results will help you decide how hot, cold, wet, or windy it might be!

Date:

Astronomy

Nov. 13, 2013 Rise Set
Actual Time 6:43 AM EST 4:48 PM EST
Civil Twilight 6:14 AM EST 5:17 PM EST
Nautical Twilight 5:42 AM EST 5:49 PM EST
Astronomical Twilight 5:10 AM EST 6:21 PM EST
Moon 2:33 PM EST (11/13) 2:35 AM EST (11/13)
Length of Visible Light 11h 02m
Length of Day
10h 05m
Waxing Gibbous, 84% of the Moon is Illuminated
Nov 13
Waxing Gibbous
Nov 17
Full
Nov 25
Last Quarter
Dec 2
New
Dec 9
First Quarter

Hourly Weather History & Observations

Time (EST) Temp. Windchill Dew Point Humidity Pressure Visibility Wind Dir Wind Speed Gust Speed Precip Events Conditions
12:58 AM 29.8 °F 23.0 °F 15.1 °F 54% 30.36 in 10.0 mi WNW 6.9 mph - N/A   Clear
1:58 AM 29.8 °F 21.5 °F 16.2 °F 57% 30.36 in 10.0 mi WNW 9.2 mph - N/A   Clear
2:58 AM 27.9 °F 20.6 °F 16.7 °F 63% 30.36 in 10.0 mi NW 6.9 mph - N/A   Clear
3:58 AM 28.2 °F 20.2 °F 17.2 °F 63% 30.37 in 10.0 mi NW 8.1 mph - N/A   Clear
4:58 AM 26.1 °F 18.4 °F 17.4 °F 70% 30.38 in 10.0 mi WNW 6.9 mph - N/A   Clear
5:58 AM 27.0 °F 18.0 °F 17.1 °F 66% 30.39 in 10.0 mi NW 9.2 mph - N/A   Clear
6:58 AM 27.5 °F 19.3 °F 16.5 °F 63% 30.41 in 10.0 mi NW 8.1 mph - N/A   Clear
7:58 AM 30.7 °F 21.4 °F 16.2 °F 55% 30.43 in 10.0 mi NW 11.5 mph - N/A   Clear
8:58 AM 33.1 °F 23.0 °F 14.4 °F 46% 30.44 in 10.0 mi NNW 15.0 mph 25.3 mph N/A   Clear
9:58 AM 35.2 °F 24.1 °F 13.8 °F 41% 30.43 in 10.0 mi NNW 20.7 mph 27.6 mph N/A   Clear
10:58 AM 37.2 °F 27.3 °F 13.8 °F 38% 30.42 in 10.0 mi NW 18.4 mph 26.5 mph N/A   Clear
11:58 AM 39.4 °F 30.4 °F 13.3 °F 34% 30.40 in 10.0 mi NW 17.3 mph 25.3 mph N/A   Clear
12:58 PM 40.6 °F 32.3 °F 14.9 °F 35% 30.39 in 10.0 mi NW 16.1 mph 26.5 mph N/A   Clear
1:15 PM 41.0 °F 33.1 °F 15.8 °F 36% 30.38 in 10.0 mi WNW 15.0 mph 26.5 mph N/A   Clear
1:58 PM 41.5 °F 33.5 °F 15.4 °F 35% 30.38 in 10.0 mi NNW 16.1 mph 23.0 mph N/A   Clear
2:58 PM 41.5 °F 33.2 °F 16.0 °F 36% 30.38 in 10.0 mi NW 17.3 mph - N/A   Clear
3:58 PM 40.6 °F 34.3 °F 17.6 °F 39% 30.39 in 10.0 mi WNW 10.4 mph - N/A   Clear
4:58 PM 38.8 °F 31.6 °F 18.9 °F 45% 30.39 in 10.0 mi WNW 11.5 mph - N/A   Clear
5:58 PM 37.4 °F 32.8 °F 19.6 °F 49% 30.41 in 10.0 mi West 5.8 mph - N/A   Clear
6:58 PM 36.0 °F - 19.9 °F 52% 30.41 in 10.0 mi West 2.3 mph - N/A   Clear
7:58 PM 32.9 °F 28.5 °F 20.5 °F 60% 30.41 in 10.0 mi WSW 4.6 mph - N/A   Clear
8:58 PM 31.6 °F 27.0 °F 20.7 °F 64% 30.41 in 10.0 mi SW 4.6 mph - N/A   Clear
9:58 PM 31.8 °F 26.2 °F 20.3 °F 62% 30.39 in 10.0 mi SW 5.8 mph - N/A   Clear
10:58 PM 30.4 °F 24.5 °F 21.6 °F 70% 30.38 in 10.0 mi SW 5.8 mph - N/A   Clear
11:58 PM 29.3 °F 23.2 °F 21.6 °F 73% 30.39 in 10.0 mi SW 5.8 mph - N/A   Clear